Time[GMT],air_temperature[C](-3m),wind_speed[m/s](-4m),wind_gust[m/s](-4m),visibility[m](-3m),barometric_pressure[millibars](-3m),wind_2_direction[degrees_true](-4m),wind_2_gust[m/s](-4m),wind_2_percent_good[m/s](-4m),wind_2_speed[m/s](-4m),wind_direction[degrees_true](-4m)
2006-09-15 16:00,15.4,,,2960,1020.46,156.00,2.64,1.00,2.18,
2006-09-15 17:00,15.4,,,2960,1020.46,172.00,4.03,1.00,3.56,
2006-09-15 18:00,15.5,,,2960,1019.91,169.40,3.25,1.00,2.87,
2006-09-15 19:00,15.5,,,2960,1019.73,183.10,1.45,1.00,1.30,
2006-09-15 20:00,15.4,,,2960,1019.61,185.90,2.18,1.00,1.87,
2006-09-15 21:00,15.5,,,2960,1019.79,241.20,0.94,1.00,0.56,
2006-09-15 22:00,15.3,,,2960,1019.61,203.80,2.06,1.00,1.78,
2006-09-15 23:00,15.3,,,2960,1019.30,242.40,1.55,1.00,1.40,
2006-09-16 00:00,15.1,,,2960,1019.48,320.40,1.13,1.00,0.88,
2006-09-16 01:00,15.3,,,2960,1019.48,226.00,1.80,1.00,1.63,
2006-09-16 02:00,14.6,,,2960,1019.48,242.40,1.00,1.00,0.82,
2006-09-16 03:00,14.4,,,2960,1019.61,230.10,1.80,1.00,1.43,
2006-09-16 04:00,14.6,,,2960,1019.55,277.20,3.04,1.00,2.76,
2006-09-16 05:00,14.9,,,2960,1019.61,299.70,1.92,1.00,1.30,
2006-09-16 07:00,14.6,,,2960,1018.87,277.20,2.85,1.00,2.36,
2006-09-16 08:00,15.0,,,2960,1018.38,275.60,1.81,1.00,1.46,
2006-09-16 09:00,14.7,,,2960,1018.32,213.90,1.42,1.00,0.89,
2006-09-16 10:00,14.5,,,2960,1018.20,234.80,2.61,1.00,2.20,
2006-09-16 11:00,14.4,,,2960,1018.56,260.00,1.72,1.00,1.44,
2006-09-16 12:00,15.7,,,2962,1018.75,330.50,2.66,1.00,2.00,
2006-09-16 13:00,16.7,,,2961,1018.99,342.40,0.76,1.00,0.52,
2006-09-16 14:00,16.2,,,2961,1018.69,76.60,1.36,1.00,0.74,
2006-09-16 15:00,17.6,,,2961,1018.75,179.10,0.87,1.00,0.49,
2006-09-16 16:00,16.4,,,2960,1018.01,200.00,2.30,1.00,1.80,
2006-09-16 17:00,16.8,,,2960,1017.52,193.30,2.86,1.00,2.14,
2006-09-16 18:00,16.9,,,2960,1017.16,201.90,3.59,1.00,3.01,
2006-09-16 19:00,17.0,,,2960,1016.36,206.10,3.59,1.00,2.96,
2006-09-16 20:00,16.6,,,2960,1016.05,224.00,4.47,1.00,3.71,
2006-09-16 21:00,16.8,,,2960,1015.50,237.40,4.71,1.00,3.78,
2006-09-16 22:00,16.5,,,2960,1015.50,217.40,2.95,1.00,2.51,
2006-09-16 23:00,16.3,,,2960,1015.32,226.60,4.12,1.00,3.55,
2006-09-17 00:00,15.6,,,2960,1015.38,216.20,2.09,1.00,1.73,
2006-09-17 01:00,15.7,,,2960,1015.69,219.60,2.57,1.00,2.14,
2006-09-17 02:00,15.8,,,2960,1015.75,203.60,1.63,1.00,1.34,
2006-09-17 03:00,15.3,,,2960,1015.93,170.70,2.17,1.00,1.70,
2006-09-17 04:00,14.9,,,2960,1015.56,228.20,1.29,1.00,0.98,
2006-09-17 05:00,15.7,,,2960,1015.38,355.53,3.19,1.00,2.48,
2006-09-17 06:00,15.7,,,2960,1014.89,4.09,2.40,1.00,2.05,
2006-09-17 07:00,15.8,,,2960,1014.58,353.08,2.88,1.00,2.51,
2006-09-17 08:00,15.7,,,2960,1014.28,9.23,2.25,1.00,1.89,
2006-09-17 09:00,15.5,,,2960,1014.28,1.09,1.84,1.00,1.57,
2006-09-17 10:00,15.5,,,2960,1014.34,8.96,2.86,1.00,2.55,
2006-09-17 11:00,15.3,,,2960,1014.46,335.50,2.08,1.00,1.81,
2006-09-17 12:00,15.7,,,2877,1014.34,239.60,1.19,1.00,1.02,
2006-09-17 13:00,17.0,,,2961,1014.77,312.20,2.05,1.00,1.71,
2006-09-17 14:00,17.8,,,2961,1014.58,328.70,1.95,1.00,1.32,
2006-09-17 15:00,18.4,,,2960,1014.16,324.50,1.15,1.00,0.76,
2006-09-17 16:00,19.1,,,2960,1013.60,140.10,1.20,1.00,0.84,
2006-09-17 17:00,18.2,,,2960,1013.18,182.40,2.83,1.00,2.55,
2006-09-17 18:00,17.5,,,2957,1012.38,181.90,3.91,1.00,3.38,
2006-09-17 19:00,17.0,,,2915,1011.71,185.90,4.81,1.00,3.65,
2006-09-17 20:00,16.7,,,2960,1011.16,194.80,4.95,1.00,4.10,
2006-09-17 21:00,16.4,,,2960,1010.97,201.00,5.71,1.00,5.07,
2006-09-17 22:00,16.0,,,2960,1010.24,204.10,6.48,1.00,5.80,
2006-09-17 23:00,16.1,,,2960,1010.97,235.60,5.71,1.00,4.71,
2006-09-18 00:00,15.9,,,2960,1011.16,223.80,5.25,1.00,4.43,
2006-09-18 01:00,15.7,,,2960,1010.91,215.90,4.39,1.00,3.66,
2006-09-18 02:00,15.5,,,2960,1010.67,214.80,5.19,1.00,4.50,
2006-09-18 03:00,15.8,,,2960,1011.22,216.80,4.09,1.00,3.58,
2006-09-18 04:00,16.3,,,2960,1011.59,261.60,4.25,1.00,3.48,
2006-09-18 05:00,16.2,,,2960,1010.73,232.40,2.86,1.00,2.37,
2006-09-18 06:00,15.9,,,2960,1010.18,195.10,4.37,1.00,3.86,
2006-09-18 07:00,15.7,,,2960,1009.94,202.70,4.03,1.00,3.34,
2006-09-18 08:00,15.3,,,2960,1010.06,214.90,3.69,1.00,3.05,
2006-09-18 09:00,15.2,,,2951,1010.42,218.90,3.23,1.00,1.91,
2006-09-18 10:00,14.6,,, 292,1010.61,234.20,2.45,1.00,1.64,
2006-09-18 11:00,14.2,,, 448,1011.40,221.80,2.71,1.00,2.16,
2006-09-18 12:00,14.3,,,1641,1011.10,197.90,2.56,1.00,2.10,
2006-09-18 13:00,15.6,,,2960,1011.28,193.50,0.99,1.00,0.75,
2006-09-18 14:00,15.5,,,2961,1011.59,149.30,2.61,1.00,1.95,
2006-09-18 15:00,15.3,,,2912,1011.40,173.80,3.93,1.00,3.41,
2006-09-18 16:00,14.8,,,2300,1010.97,191.60,4.62,1.00,3.98,
2006-09-18 17:00,14.6,,, 503,1010.91,185.20,4.32,1.00,3.67,
2006-09-18 18:00,14.9,,, 234,1010.61,178.60,4.81,1.00,3.91,
2006-09-18 19:00,15.9,,,2804,1010.30,197.90,5.23,1.00,4.46,
2006-09-18 20:00,15.9,,,2777,1009.94,192.40,6.37,1.00,5.25,
2006-09-18 21:00,14.9,,, 386,1009.51,197.10,7.45,1.00,6.70,
2006-09-18 22:00,14.6,,, 479,1009.39,203.70,5.32,1.00,4.75,
2006-09-18 23:00,14.8,,,1969,1009.45,208.60,5.43,1.00,4.77,
2006-09-19 01:00,15.6,,,2945,1009.69,227.60,4.26,1.00,3.36,
2006-09-19 02:00,15.8,,,2959,1009.39,218.10,4.99,1.00,4.19,
2006-09-19 03:00,15.9,,,2883,1009.14,216.60,5.75,1.00,4.72,
2006-09-19 04:00,15.7,,,2862,1008.90,202.90,5.16,1.00,4.53,
2006-09-19 05:00,15.5,,,2942,1008.84,190.10,5.70,1.00,5.08,
2006-09-19 06:00,15.4,,,2874,1008.71,190.60,5.86,1.00,4.93,
2006-09-19 07:00,15.4,,,2824,1008.41,196.40,5.21,1.00,4.53,
2006-09-19 08:00,15.5,,,2886,1008.10,213.10,6.37,1.00,5.50,
2006-09-19 09:00,15.4,,,2897,1008.16,207.40,5.29,1.00,4.56,
2006-09-19 10:00,15.4,,,2938,1008.29,210.80,6.51,1.00,5.41,
2006-09-19 11:00,15.4,,,2883,1008.29,212.70,6.02,1.00,4.94,
2006-09-19 12:00,15.5,,,2662,1008.29,202.00,6.42,1.00,4.87,
2006-09-19 13:00,15.5,,,2957,1008.35,199.70,6.16,1.00,5.17,
2006-09-19 14:00,15.7,,,2955,1008.22,206.10,5.97,1.00,5.01,
2006-09-19 15:00,15.4,,, 316,1007.98,219.00,6.16,1.00,5.20,
2006-09-19 16:00,15.4,,, 311,1007.92,202.50,6.89,1.00,5.74,
2006-09-19 17:00,15.3,,, 315,1007.86,197.40,6.25,1.00,4.90,
2006-09-19 18:00,15.0,,, 243,1007.43,182.60,5.29,1.00,4.21,
2006-09-19 19:00,14.9,,, 228,1006.94,179.30,4.87,1.00,4.12,
2006-09-19 20:00,14.7,,, 309,1007.00,209.00,2.59,1.00,2.31,
2006-09-19 21:00,14.8,,, 231,1006.33,168.70,2.56,1.00,1.74,
2006-09-19 22:00,15.0,,, 255,1006.15,164.60,2.70,1.00,2.08,
2006-09-19 23:00,15.0,,, 613,1005.84,142.10,3.58,1.00,2.89,
2006-09-20 00:00,15.0,,, 661,1005.54,149.40,3.61,1.00,3.06,
2006-09-20 01:00,15.0,,, 356,1005.23,194.90,1.99,1.00,1.17,
2006-09-20 02:00,15.0,,, 432,1004.80,216.20,1.42,1.00,0.86,
2006-09-20 03:00,15.2,,, 953,1004.44,182.70,2.33,1.00,1.27,
2006-09-20 04:00,15.2,,,2960,1003.95,144.10,3.10,1.00,2.20,
2006-09-20 05:00,15.0,,,2960,1003.34,136.50,2.74,1.00,2.31,
2006-09-20 06:00,15.1,,,2160,1002.61,151.40,2.88,1.00,2.11,
2006-09-20 07:00,15.0,,,2201,1002.36,196.80,2.26,1.00,1.59,
2006-09-20 08:00,15.1,,, 538,1001.69,13.40,1.59,1.00,1.23,
2006-09-20 09:00,14.7,,,2097,1001.20,9.41,2.39,1.00,1.67,
2006-09-20 10:00,14.5,,,2803,1000.72,12.76,8.50,1.00,6.54,
2006-09-20 11:00,14.2,,,1757,1000.41,357.32,7.34,1.00,6.02,
2006-09-20 13:00,14.4,,,2960,1000.47,4.76,6.00,1.00,5.06,
2006-09-20 14:00,14.5,,,2960,1000.66,9.49,4.92,1.00,4.01,
2006-09-20 15:00,14.7,,,2960,1000.53,333.90,4.42,1.00,3.67,
2006-09-20 16:00,15.5,,,2961,1000.17,16.76,2.42,1.00,2.09,
2006-09-20 17:00,15.7,,,2961,1000.23,9.46,1.42,1.00,1.09,
2006-09-20 18:00,17.9,,,2961,999.92,191.00,1.77,1.00,0.96,
2006-09-20 20:00,16.0,,,2960,1000.11,176.10,3.36,1.00,2.62,
2006-09-20 21:00,18.5,,,1542,1000.29,281.00,4.61,1.00,4.01,
2006-09-20 22:00,18.1,,, 300,1000.78,286.40,4.75,1.00,4.03,
2006-09-20 23:00,15.9,,,2960,1001.33,239.50,6.00,1.00,4.68,
2006-09-21 00:00,15.0,,,2960,1002.00,234.30,3.82,1.00,3.30,
2006-09-21 01:00,14.6,,,2960,1002.73,254.10,2.93,1.00,2.52,
2006-09-21 02:00,14.6,,,2960,1003.09,252.90,3.48,1.00,3.08,
2006-09-21 03:00,15.0,,,2960,1003.77,279.60,3.45,1.00,2.79,
2006-09-21 04:00,14.3,,,2960,1004.07,263.90,3.09,1.00,2.14,
2006-09-21 05:00,14.1,,,2960,1004.38,289.00,2.18,1.00,1.55,
2006-09-21 06:00,14.3,,,2960,1005.05,282.40,3.15,1.00,2.63,
2006-09-21 07:00,14.1,,,2960,1005.23,284.30,6.85,1.00,5.22,
2006-09-21 08:00,13.8,,,2960,1005.84,274.50,6.87,1.00,5.36,
2006-09-21 09:00,13.1,,,2960,1006.45,285.10,7.74,1.00,6.45,
2006-09-21 10:00,12.8,,,2960,1007.55,289.30,9.12,1.00,7.09,
2006-09-21 11:00,12.0,,,2832,1008.53,302.00,11.31,1.00,8.88,
2006-09-21 12:00,11.6,,,2567,1009.69,304.20,9.21,1.00,7.11,
2006-09-21 13:00,12.0,,,2961,1010.49,307.90,9.63,1.00,7.64,
2006-09-21 14:00,12.4,,,2961,1011.34,320.90,9.31,1.00,7.61,
2006-09-21 15:00,13.0,,,2961,1011.95,312.50,9.88,1.00,7.85,
2006-09-21 16:00,13.2,,,2961,1012.14,313.00,8.35,1.00,6.70,
2006-09-21 17:00,13.6,,,2654,1012.38,311.40,9.74,1.00,6.87,
2006-09-21 18:00,14.0,,,2492,1012.56,305.30,8.69,1.00,6.66,
2006-09-21 19:00,14.6,,,2728,1012.99,306.30,8.39,1.00,6.48,
2006-09-21 20:00,15.3,,,2944,1013.67,304.90,8.82,1.00,6.03,
2006-09-21 21:00,15.2,,,2822,1014.28,304.30,10.14,1.00,7.41,
2006-09-21 22:00,15.3,,,2960,1015.01,304.90,5.23,1.00,3.97,
2006-09-21 23:00,14.3,,,2960,1015.87,280.00,3.13,1.00,2.57,
2006-09-22 00:00,13.9,,,2960,1016.42,263.50,3.22,1.00,2.72,
2006-09-22 01:00,13.7,,,2960,1016.91,253.50,3.93,1.00,3.44,
2006-09-22 02:00,13.3,,,2960,1017.40,249.70,4.67,1.00,3.66,
2006-09-22 03:00,13.3,,,2960,1017.65,260.20,4.13,1.00,3.56,
2006-09-22 04:00,11.9,,,2960,1018.26,289.00,5.15,1.00,4.28,
2006-09-22 05:00,12.2,,,2960,1018.20,266.30,6.40,1.00,5.09,
2006-09-22 06:00,12.2,,,2960,1018.44,267.70,5.06,1.00,4.40,
2006-09-22 07:00,10.9,,,2960,1018.63,264.50,5.08,1.00,4.17,
2006-09-22 08:00,11.0,,,2960,1018.87,285.30,6.29,1.00,5.56,
2006-09-22 09:00,12.6,,,2960,1019.12,308.60,6.62,1.00,5.74,
2006-09-22 10:00,11.4,,,2960,1019.67,283.10,5.86,1.00,4.85,
2006-09-22 11:00,11.5,,,2960,1020.65,316.90,5.17,1.00,4.38,
2006-09-22 12:00,12.3,,,2961,1020.71,339.80,7.77,1.00,6.62,
2006-09-22 13:00,12.6,,,2961,1021.32,333.70,5.90,1.00,4.59,
2006-09-22 14:00,13.6,,,2961,1021.45,306.80,8.54,1.00,6.45,
2006-09-22 15:00,14.3,,,2961,1020.77,296.70,7.91,1.00,5.88,
2006-09-22 16:00,14.9,,,2961,1020.40,286.40,10.00,1.00,7.75,
2006-09-22 17:00,15.3,,,2311,1020.16,301.20,9.37,1.00,6.83,
2006-09-22 18:00,15.9,,,2643,1019.73,297.10,6.85,1.00,5.52,
2006-09-22 19:00,16.4,,,2961,1019.42,302.00,5.86,1.00,4.21,
2006-09-22 20:00,16.2,,,2961,1019.42,285.90,7.62,1.00,5.36,
2006-09-22 21:00,15.6,,,2961,1019.24,248.10,4.45,1.00,2.78,
2006-09-22 22:00,14.6,,,2960,1019.48,222.90,8.33,1.00,5.97,
2006-09-22 23:00,14.4,,,2960,1019.42,229.00,6.26,1.00,5.13,
2006-09-23 00:00,14.2,,,2960,1019.79,229.70,6.39,1.00,5.53,
2006-09-23 01:00,14.1,3.7,4.5,2960,1019.73,,,,,245.00
2006-09-23 02:00,14.2,,,2960,1019.48,223.80,4.00,1.00,3.37,
2006-09-23 03:00,14.2,,,2960,1019.12,209.20,3.50,1.00,2.85,
2006-09-23 04:00,14.1,,,2960,1018.93,213.10,3.14,1.00,2.78,
2006-09-23 05:00,14.1,,,2960,1018.26,160.60,2.29,1.00,1.97,
2006-09-23 06:00,14.3,,,2960,1018.14,131.60,2.04,1.00,1.54,
2006-09-23 07:00,14.6,,,2960,1017.46,167.20,4.62,1.00,3.86,
2006-09-23 08:00,14.7,,,2960,1016.97,195.40,4.29,1.00,3.56,
2006-09-23 09:00,14.7,,,2960,1016.73,213.30,4.88,1.00,4.03,
2006-09-23 10:00,14.6,,,2960,1016.48,206.10,6.34,1.00,5.22,
2006-09-23 11:00,14.7,,,2960,1015.93,195.00,5.43,1.00,4.57,
2006-09-23 12:00,14.7,,,2960,1015.20,189.20,6.86,1.00,5.66,
2006-09-23 13:00,14.9,,,2960,1014.77,188.20,8.04,1.00,6.70,
2006-09-23 14:00,14.8,,,2862,1013.73,178.00,9.16,1.00,7.77,
2006-09-23 15:00,14.8,,,2858,1012.81,181.40,10.81,1.00,8.60,
2006-09-23 16:00,14.6,,,2704,1011.77,174.90,9.22,1.00,7.55,
2006-09-23 17:00,14.4,,,1771,1010.67,167.80,9.25,1.00,7.42,
2006-09-23 18:00,14.1,,,1280,1008.96,164.90,5.62,1.00,4.37,
2006-09-23 19:00,14.3,,,2343,1007.98,150.90,6.90,1.00,5.44,
2006-09-23 20:00,14.6,,,2700,1006.88,210.10,5.31,1.00,3.35,
2006-09-23 21:00,15.1,,,2607,1006.27,223.70,5.49,1.00,4.77,
2006-09-23 22:00,15.1,,,2742,1006.27,234.20,3.79,1.00,3.26,
2006-09-23 23:00,14.8,,,2730,1006.33,226.60,3.91,1.00,3.38,
2006-09-24 00:00,15.0,,,2596,1006.33,236.00,3.58,1.00,3.23,
2006-09-24 01:00,14.7,,,2718,1006.70,198.80,2.94,1.00,2.27,
2006-09-24 02:00,14.1,,,1024,1006.64,219.70,4.16,1.00,3.32,
2006-09-24 03:00,13.8,,, 189,1006.51,226.90,1.98,1.00,1.10,
2006-09-24 04:00,13.7,,, 116,1006.51,119.10,1.44,1.00,1.26,
2006-09-24 05:00,13.6,,, 172,1006.02,104.10,1.51,1.00,1.04,
2006-09-24 06:00,13.9,,, 157,1006.09,176.80,2.69,1.00,2.21,
2006-09-24 07:00,14.0,,, 122,1005.54,195.20,3.24,1.00,2.79,
2006-09-24 08:00,13.6,,, 164,1005.60,186.50,1.63,1.00,1.28,
2006-09-24 09:00,13.7,,, 110,1005.48,168.30,2.34,1.00,1.97,
2006-09-24 10:00,13.9,,, 378,1004.25,127.40,3.60,1.00,2.83,
2006-09-24 11:00,14.4,,,1391,1003.89,180.30,4.99,1.00,4.10,
2006-09-24 12:00,14.5,,, 461,1002.97,169.10,5.36,1.00,4.43,
2006-09-24 13:00,14.7,,, 863,1002.06,186.90,5.61,1.00,4.71,
2006-09-24 14:00,14.9,,, 667,1001.02,190.60,7.39,1.00,6.02,
2006-09-24 15:00,15.3,,, 381,999.25,199.80,9.32,1.00,8.07,
2006-09-24 16:00,15.0,,, 255,998.03,198.30,9.88,1.00,8.22,
2006-09-24 17:00,15.4,,, 229,997.18,213.20,9.17,1.00,7.36,
2006-09-24 18:00,15.7,,, 378,995.78,220.80,9.98,1.00,8.47,
2006-09-24 19:00,15.4,,,1102,995.05,223.40,9.16,1.00,7.68,
2006-09-24 20:00,15.9,,,1278,995.41,229.40,9.38,1.00,7.74,
2006-09-24 21:00,16.1,,,2959,994.26,217.70,9.12,1.00,7.42,
2006-09-24 22:00,15.6,,,2948,994.07,221.90,10.70,1.00,8.00,
2006-09-24 23:00,16.2,,,2960,994.56,229.20,12.12,1.00,10.42,
2006-09-25 00:00,16.7,,,2960,995.29,236.00,10.96,1.00,8.97,
2006-09-25 01:00,16.5,,,2960,996.39,235.30,10.42,1.00,9.12,
2006-09-25 02:00,15.8,,,2960,997.36,235.00,6.26,1.00,5.44,
2006-09-25 03:00,16.2,,,2960,998.77,250.40,6.02,1.00,4.81,
2006-09-25 04:00,16.0,,,2960,999.98,301.40,8.49,1.00,6.11,
2006-09-25 05:00,15.1,,,2960,1000.59,326.20,5.30,1.00,4.22,
2006-09-25 06:00,14.0,,,2960,1001.26,310.40,2.40,1.00,2.06,
2006-09-25 07:00,13.2,,,2960,1001.57,234.70,2.91,1.00,2.46,
2006-09-25 08:00,13.0,,,2960,1001.81,277.70,3.83,1.00,3.20,
2006-09-25 09:00,13.4,,,2960,1002.91,325.30,7.33,1.00,6.19,
2006-09-25 10:00,12.2,,,2960,1004.01,342.84,8.90,1.00,7.69,
2006-09-25 11:00,11.8,,,2885,1005.60,339.50,8.16,1.00,6.85,
2006-09-25 12:00,11.5,,,2961,1006.51,341.40,7.45,1.00,6.08,
2006-09-25 13:00,11.6,,,2921,1007.12,339.30,5.65,1.00,4.79,
2006-09-25 14:00,12.2,,,2961,1007.25,359.93,7.05,1.00,4.40,
2006-09-25 15:00,12.3,,,2961,1007.43,335.80,2.66,1.00,1.91,
2006-09-25 16:00,12.8,,,2960,1006.94,158.70,2.11,1.00,1.45,
2006-09-25 17:00,12.5,,,2960,1006.64,174.20,6.89,1.00,5.03,
2006-09-25 18:00,12.9,,,2960,1006.27,180.00,7.02,1.00,5.32,
2006-09-25 19:00,13.0,,,2960,1006.27,205.80,8.51,1.00,7.58,
2006-09-25 20:00,13.1,,,2961,1006.57,220.90,7.70,1.00,6.66,
2006-09-25 21:00,13.3,,,2961,1006.88,216.20,8.71,1.00,7.51,
2006-09-25 22:00,13.3,,,2960,1007.55,224.80,7.54,1.00,6.44,
2006-09-25 23:00,13.3,,,2960,1007.86,223.80,6.22,1.00,5.14,
2006-09-26 00:00,13.2,,,2960,1008.29,208.90,4.25,1.00,3.37,
2006-09-26 01:00,13.2,,,2960,1008.22,219.50,1.76,1.00,1.38,
2006-09-26 02:00,13.0,,,2960,1008.59,60.40,1.07,1.00,0.82,
2006-09-26 03:00,13.1,,,2960,1008.29,72.90,1.98,1.00,1.60,
2006-09-26 04:00,13.0,,,2960,1007.74,131.00,3.35,1.00,2.71,
2006-09-26 05:00,13.2,,,2960,1007.61,197.30,3.14,1.00,2.62,
2006-09-26 06:00,13.1,,,2960,1007.49,231.60,4.97,1.00,3.71,
2006-09-26 07:00,12.8,,,2960,1007.25,241.30,5.26,1.00,4.65,
2006-09-26 08:00,13.1,,,2960,1006.82,245.50,6.28,1.00,4.92,
2006-09-26 09:00,12.8,,,2960,1006.51,215.60,5.18,1.00,4.24,
2006-09-26 10:00,13.4,,,2960,1006.45,240.10,6.85,1.00,5.76,
2006-09-26 11:00,13.0,,,2960,1007.25,250.80,6.93,1.00,5.83,
2006-09-26 12:00,11.4,,,2961,1008.29,263.50,6.36,1.00,5.42,
2006-09-26 13:00,12.8,,,2961,1008.65,254.50,6.04,1.00,5.26,
2006-09-26 14:00,13.9,,,2912,1009.14,229.00,5.16,1.00,4.31,
2006-09-26 15:00,13.6,,,2960,1009.08,216.80,7.55,1.00,5.63,
2006-09-26 16:00,14.1,,,2917,1009.39,219.10,8.50,1.00,6.47,
2006-09-26 17:00,14.6,,,2959,1009.39,217.30,8.11,1.00,6.20,
2006-09-26 18:00,14.8,,,2761,1009.45,220.00,9.76,1.00,7.35,
2006-09-26 19:00,17.4,,,2916,1009.94,293.90,8.61,1.00,6.53,
2006-09-26 20:00,17.6,,,2889,1010.85,301.70,7.14,1.00,5.64,
2006-09-26 21:00,17.2,,,2960,1011.83,314.10,6.05,1.00,5.12,
2006-09-26 22:00,16.6,,,2960,1012.99,305.00,6.33,1.00,4.97,
2006-09-26 23:00,15.4,,,2960,1013.97,300.20,4.63,1.00,3.81,
2006-09-27 00:00,14.7,,,2960,1015.13,336.20,3.46,1.00,3.13,
2006-09-27 01:00,14.6,,,2960,1015.62,347.76,4.25,1.00,3.56,
2006-09-27 02:00,13.9,,,2960,1016.36,337.10,2.93,1.00,2.42,
2006-09-27 03:00,13.8,,,2960,1017.09,355.13,2.84,1.00,2.22,
2006-09-27 04:00,13.3,,,2960,1017.52,283.30,1.32,1.00,0.74,
2006-09-27 05:00,12.1,,,2960,1017.89,253.80,1.10,1.00,0.65,
2006-09-27 06:00,12.6,,,2960,1018.07,155.30,1.86,1.00,1.28,
2006-09-27 07:00,12.1,,,2960,1018.20,274.40,1.22,1.00,1.00,
2006-09-27 08:00,11.9,,,2960,1018.20,327.10,1.96,1.00,1.42,
2006-09-27 09:00,11.6,,,2960,1018.44,353.02,2.25,1.00,1.96,
2006-09-27 10:00,12.1,,,2960,1018.75,45.92,1.93,1.00,1.58,
2006-09-27 11:00,12.5,,,2960,1018.99,39.67,1.95,1.00,1.67,
2006-09-27 12:00,13.8,,,2961,1019.48,20.09,1.20,1.00,0.74,
2006-09-27 13:00,13.8,,,2960,1019.55,122.20,2.33,1.00,1.73,
2006-09-27 14:00,13.7,,,2960,1019.73,134.20,4.37,1.00,3.31,
2006-09-27 15:00,13.8,,,2955,1019.67,142.30,4.93,1.00,4.19,
2006-09-27 16:00,13.9,,,2960,1019.48,137.60,5.27,1.00,4.43,
2006-09-27 17:00,14.0,,,2832,1018.63,142.20,7.41,1.00,6.43,
2006-09-27 18:00,14.1,,,2960,1017.71,140.90,6.23,1.00,5.24,
2006-09-27 19:00,14.0,,,2960,1016.91,129.80,5.72,1.00,4.65,
2006-09-27 20:00,14.1,,,2960,1016.85,129.50,4.69,1.00,3.77,
2006-09-27 21:00,14.5,,,2960,1016.54,156.30,2.95,1.00,2.43,
2006-09-27 22:00,14.2,,,2960,1016.42,169.30,5.73,1.00,4.91,
2006-09-27 23:00,14.1,,,2960,1016.60,162.70,4.95,1.00,4.33,
2006-09-28 00:00,14.1,,,2960,1016.54,160.90,5.95,1.00,4.87,
2006-09-28 01:00,14.0,,,2960,1016.48,164.50,6.65,1.00,5.36,
2006-09-28 02:00,13.9,,,2960,1016.67,167.30,5.70,1.00,4.87,
2006-09-28 03:00,13.8,,,2960,1016.48,164.60,4.93,1.00,4.23,
2006-09-28 04:00,13.7,,,2960,1016.24,164.10,4.54,1.00,4.05,
2006-09-28 05:00,13.8,,,2960,1015.81,168.90,4.90,1.00,4.21,
2006-09-28 06:00,13.5,,,2960,1015.75,147.50,4.43,1.00,3.83,
2006-09-28 07:00,13.4,,,2960,1015.50,153.00,4.50,1.00,3.57,
2006-09-28 08:00,13.4,,,2960,1015.69,141.00,4.44,1.00,3.46,
2006-09-28 09:00,13.0,,, 239,1015.87,149.00,5.05,1.00,4.06,
2006-09-28 10:00,13.1,,,2960,1015.87,138.10,3.47,1.00,2.83,
2006-09-28 11:00,13.4,,,2960,1016.18,118.60,3.73,1.00,3.04,
2006-09-28 12:00,13.5,,,2960,1016.42,115.10,4.42,1.00,3.50,
2006-09-28 13:00,13.9,,,2960,1016.54,120.80,4.16,1.00,3.55,
2006-09-28 14:00,14.0,,,2960,1016.67,122.90,4.28,1.00,3.44,
2006-09-28 15:00,14.1,,,2960,1016.30,124.60,4.44,1.00,3.75,
2006-09-28 16:00,14.2,,,2960,1015.75,120.90,4.65,1.00,3.92,
2006-09-28 17:00,14.7,,,2960,1015.50,129.50,2.67,1.00,2.30,
2006-09-28 18:00,14.5,,,2960,1015.07,134.00,3.18,1.00,2.62,
2006-09-28 19:00,14.3,,,2960,1014.34,115.40,2.77,1.00,2.32,
2006-09-28 20:00,14.5,,,2960,1013.97,122.70,3.85,1.00,3.22,
2006-09-28 21:00,14.2,,,2960,1013.97,127.50,3.69,1.00,3.05,
2006-09-28 22:00,14.1,,,2960,1013.91,125.40,4.10,1.00,3.29,
2006-09-28 23:00,14.1,,,2960,1013.54,121.50,5.01,1.00,3.98,
2006-09-29 00:00,14.0,,,2960,1013.42,125.10,5.03,1.00,4.20,
2006-09-29 01:00,13.9,,,2960,1013.12,117.80,5.22,1.00,4.17,
2006-09-29 02:00,14.0,,,2960,1012.75,117.00,5.30,1.00,4.34,
2006-09-29 03:00,14.1,,,2960,1013.30,131.70,3.19,1.00,2.60,
2006-09-29 04:00,14.0,,,2960,1012.69,125.60,5.44,1.00,4.07,
2006-09-29 05:00,14.1,,,2960,1011.89,128.40,8.52,1.00,7.15,
2006-09-29 06:00,13.8,,,2960,1011.40,116.30,7.42,1.00,5.88,
2006-09-29 07:00,13.7,,,2960,1010.42,103.50,6.33,1.00,5.50,
2006-09-29 08:00,13.7,,,2960,1009.69,105.50,7.09,1.00,6.06,
2006-09-29 09:00,13.9,,,2960,1008.59,95.30,8.01,1.00,6.36,
2006-09-29 10:00,13.7,,,2677,1007.55,60.50,4.80,1.00,3.68,
2006-09-29 11:00,13.9,,,2503,1006.21,19.78,5.77,1.00,3.92,
2006-09-29 12:00,14.5,,,1093,1005.17,101.00,9.11,1.00,7.65,
2006-09-29 13:00,14.5,,, 533,1004.62,112.50,9.24,1.00,7.75,
2006-09-29 14:00,14.8,,, 724,1003.83,130.40,8.74,1.00,7.01,
2006-09-29 15:00,14.9,,,1010,1003.52,169.10,8.60,1.00,7.13,
2006-09-29 16:00,14.4,,, 345,1003.28,184.70,6.55,1.00,5.50,
2006-09-29 17:00,14.4,,,1553,1002.97,200.30,6.77,1.00,5.95,
2006-09-29 18:00,14.5,,,2831,1002.91,205.90,7.44,1.00,6.18,
2006-09-29 19:00,14.5,,,2251,1002.67,189.30,7.30,1.00,5.42,
2006-09-29 20:00,14.9,,,2957,1001.94,162.20,11.88,1.00,9.19,
2006-09-29 21:00,14.8,,,2960,1002.55,176.50,11.06,1.00,9.15,
2006-09-29 22:00,15.4,,,2521,1002.42,195.40,14.34,1.00,11.53,
2006-09-29 23:00,14.3,,,2960,1004.25,295.20,11.83,1.00,9.75,
2006-09-30 00:00,12.7,,,2960,1007.00,277.40,10.25,1.00,8.12,
2006-09-30 01:00,12.0,,,2960,1008.41,270.80,6.19,1.00,5.12,
2006-09-30 02:00,11.4,,,2960,1009.75,266.00,6.71,1.00,5.32,
2006-09-30 03:00,10.9,,,2960,1010.79,264.00,6.13,1.00,5.21,
2006-09-30 04:00,10.8,,,2960,1011.59,256.00,7.91,1.00,6.55,
2006-09-30 05:00,10.2,,,2960,1012.44,261.00,6.81,1.00,5.75,
2006-09-30 06:00,10.3,,,2960,1013.42,259.90,6.81,1.00,5.84,
2006-09-30 07:00,9.8,,,2960,1013.79,274.30,6.83,1.00,5.81,
2006-09-30 08:00,9.3,,,2960,1014.83,277.90,6.84,1.00,5.70,
2006-09-30 09:00,8.8,,,2960,1016.42,268.10,7.26,1.00,6.33,
2006-09-30 10:00,9.1,,,2960,1017.22,266.40,7.20,1.00,6.14,
2006-09-30 11:00,9.1,,,2960,1018.44,275.00,7.21,1.00,6.38,
2006-09-30 12:00,9.1,,,2961,1019.24,277.60,7.33,1.00,6.32,
2006-09-30 13:00,9.8,,,2961,1020.53,276.40,7.15,1.00,6.15,
2006-09-30 14:00,11.3,,,2960,1021.32,284.20,8.37,1.00,6.83,
2006-09-30 15:00,11.8,,,2960,1022.12,301.50,6.94,1.00,5.15,
2006-09-30 16:00,12.4,,,2960,1022.06,308.00,5.20,1.00,3.65,
2006-09-30 17:00,12.9,,,2960,1021.81,134.50,2.36,1.00,1.76,
2006-09-30 18:00,12.4,,,2960,1021.87,190.20,5.25,1.00,4.26,
2006-09-30 19:00,12.3,,,2729,1021.87,190.10,6.57,1.00,5.44,
2006-09-30 20:00,12.4,,,2616,1022.55,197.40,9.30,1.00,7.88,
2006-09-30 21:00,12.6,,,2893,1022.80,205.00,8.54,1.00,7.50,
2006-09-30 22:00,12.5,,,2960,1023.10,203.40,7.44,1.00,6.31,
2006-09-30 23:00,12.5,,,2960,1023.16,211.10,4.80,1.00,4.16,
2006-10-01 00:00,12.7,,,2960,1023.65,203.40,5.21,1.00,4.36,
2006-10-01 01:00,12.9,,,2960,1024.15,184.40,4.92,1.00,4.11,
2006-10-01 02:00,13.1,,,2960,1024.51,169.90,4.50,1.00,3.89,
2006-10-01 03:00,13.0,,,2960,1024.76,157.60,5.60,1.00,4.68,
2006-10-01 04:00,12.9,,,2960,1024.82,156.50,5.42,1.00,4.65,
2006-10-01 05:00,13.0,,,2960,1024.76,143.20,5.72,1.00,4.91,
2006-10-01 06:00,13.0,,,2960,1024.33,132.00,6.46,1.00,5.58,
2006-10-01 07:00,13.1,,,2960,1024.08,126.90,7.37,1.00,6.25,
2006-10-01 08:00,13.1,,,2960,1024.02,124.50,7.09,1.00,6.23,
2006-10-01 09:00,13.1,,,2960,1023.84,125.30,7.50,1.00,6.26,
2006-10-01 10:00,13.1,,,2960,1023.84,124.60,6.82,1.00,5.92,
2006-10-01 11:00,13.1,,,2170,1024.15,120.10,7.22,1.00,5.93,
2006-10-01 12:00,13.1,,,2898,1024.21,117.50,6.88,1.00,5.63,
2006-10-01 13:00,13.3,,,2933,1024.02,110.80,7.95,1.00,6.50,
2006-10-01 14:00,13.2,,,2960,1023.90,103.80,8.24,1.00,6.97,
2006-10-01 15:00,13.2,,,2960,1023.41,105.00,10.17,1.00,8.23,
2006-10-01 16:00,13.0,,,2960,1023.04,104.00,11.06,1.00,9.26,
2006-10-01 17:00,13.0,,,2960,1022.67,107.90,9.55,1.00,8.27,
2006-10-01 18:00,12.9,,,2960,1021.75,96.10,8.50,1.00,7.01,
2006-10-01 19:00,13.0,,,2960,1020.83,87.10,8.28,1.00,7.08,
2006-10-01 20:00,12.8,,,2960,1020.28,78.40,8.31,1.00,6.74,
2006-10-01 21:00,12.6,,,2960,1019.85,85.10,8.55,1.00,6.92,
2006-10-01 22:00,12.3,,,2960,1019.73,74.00,7.02,1.00,5.56,
2006-10-01 23:00,12.3,,,2960,1018.93,68.10,7.96,1.00,6.92,
2006-10-02 00:00,12.3,,,2937,1018.38,67.70,7.91,1.00,6.60,